This is the latest recevied weather packets stored in our database for station/object IZ6UQU-13. If no packets are shown the sender has not sent any weather packets the latest 10 day(s).
| Time | Temp. | Humidity | Pressure | Rain* | Wind** | Luminosity | Snow |
|---|---|---|---|---|---|---|---|
| 1777586404 | 5.56° C | 87% | 961.8 hPa | 0 mm | - | - | - |
| 1777586104 | 6.11° C | 87% | 961.6 hPa | 0 mm | - | - | - |
| 1777585804 | 6.11° C | 87% | 961.6 hPa | 0 mm | - | - | - |
| 1777585503 | 6.11° C | 86% | 961.5 hPa | 0 mm | - | - | - |
| 1777585208 | 6.67° C | 84% | 961.5 hPa | 0 mm | - | - | - |
| 1777584903 | 6.67° C | 82% | 961.5 hPa | 0 mm | - | - | - |
| 1777584604 | 6.67° C | 82% | 961.4 hPa | 0 mm | - | - | - |
| 1777584303 | 6.67° C | 82% | 961.4 hPa | 0 mm | - | - | - |
| 1777584003 | 6.67° C | 82% | 961.5 hPa | 0 mm | - | - | - |
| 1777583703 | 7.22° C | 82% | 961.4 hPa | 0 mm | - | - | - |
| 1777583403 | 6.67° C | 82% | 961.3 hPa | 0 mm | - | - | - |
| 1777583104 | 7.22° C | 82% | 961.4 hPa | 0 mm | - | - | - |
| 1777582803 | 7.22° C | 81% | 961.2 hPa | 0 mm | - | - | - |
| 1777582504 | 7.22° C | 81% | 961.2 hPa | 0 mm | - | - | - |
| 1777582203 | 7.22° C | 81% | 961.3 hPa | 0 mm | - | - | - |
| 1777581903 | 7.22° C | 81% | 961.3 hPa | 0 mm | - | - | - |
| 1777581606 | 7.78° C | 80% | 961.3 hPa | 0 mm | - | - | - |
| 1777581303 | 7.78° C | 80% | 961.2 hPa | 0 mm | - | - | - |
| 1777581003 | 7.78° C | 80% | 961.2 hPa | 0 mm | - | - | - |
| 1777580703 | 7.78° C | 80% | 961.2 hPa | 0 mm | - | - | - |
| 1777580403 | 8.33° C | 81% | 961.2 hPa | 0 mm | - | - | - |
| 1777580103 | 8.33° C | 81% | 961.1 hPa | 0 mm | - | - | - |
| 1777579803 | 8.33° C | 82% | 961.2 hPa | 0 mm | - | - | - |
| 1777579503 | 8.33° C | 82% | 961.1 hPa | 0 mm | - | - | - |
| 1777579203 | 8.89° C | 82% | 961.1 hPa | 0 mm | - | - | - |
* Rain latest hour (hover to see other rain measurements)
** Current wind speed in m/s (hover to see current wind gust speed)